GW5451 Weather Reports


Display with metric or nautical units.
time (UTC)temp
F
wind
direction
speed
MPH
gust
MPH
rain 1hr
in
rain 24hr
in
rain mn
in
humidity
%
barometer
mb
20260505193037 80 229 11.0 0.0 0.00 0.00 0.00 6 1003.1
20260505191556 81 213 8.0 0.0 0.00 0.00 0.00 9 1003.1
20260505190107 81 212 10.0 0.0 0.00 0.00 0.00 7 1003.5
20260505184534 80 202 10.0 0.0 0.00 0.00 0.00 7 1003.6
20260505183054 79 202 9.0 0.0 0.00 0.00 0.00 8 1003.6
20260505181548 80 219 8.0 0.0 0.00 0.00 0.00 8 1004.0
20260505180038 79 202 10.0 0.0 0.00 0.00 0.00 8 1004.2
20260505174609 79 224 7.0 0.0 0.00 0.00 0.00 8 1004.1
20260505173044 80 226 9.0 0.0 0.00 0.00 0.00 10 1004.2
20260505171544 80 200 7.0 0.0 0.00 0.00 0.00 11 1004.3
20260505170033 78 248 7.0 0.0 0.00 0.00 0.00 12 1004.7
20260505164606 78 171 8.0 0.0 0.00 0.00 0.00 12 1004.7
20260505163030 78 267 8.0 0.0 0.00 0.00 0.00 14 1005.1
20260505161622 77 244 8.0 0.0 0.00 0.00 0.00 12 1005.2
20260505153031 76 284 6.0 0.0 0.00 0.00 0.00 15 1005.3
20260505151554 75 192 7.0 0.0 0.00 0.00 0.00 17 1005.3
20260505124544 62 37 0.0 0.0 0.00 0.00 0.00 41 1006.8
20260505123046 60 61 0.0 0.0 0.00 0.00 0.00 49 1006.7
20260505121538 58 64 1.0 0.0 0.00 0.00 0.00 55 1006.5
20260505120053 57 61 0.0 0.0 0.00 0.00 0.00 61 1006.2
20260505114603 54 349 0.0 0.0 0.00 0.00 0.00 61 1006.2
20260505113113 51 62 0.0 0.0 0.00 0.00 0.00 61 1006.2
20260505111546 50 62 0.0 0.0 0.00 0.00 0.00 60 1006.2
20260505101541 49 69 0.0 0.0 0.00 0.00 0.00 58 1005.5
20260505100045 49 69 0.0 0.0 0.00 0.00 0.00 57 1005.5
20260505094535 49 68 0.0 0.0 0.00 0.00 0.00 57 1005.5
20260505093102 50 68 0.0 0.0 0.00 0.00 0.00 57 1005.5
20260505091533 50 68 0.0 0.0 0.00 0.00 0.00 57 1005.4
20260505090047 50 66 0.0 0.0 0.00 0.00 0.00 56 1005.2
20260505084532 51 66 0.0 0.0 0.00 0.00 0.00 55 1005.2
20260505083056 51 65 0.0 0.0 0.00 0.00 0.00 55 1005.2
20260505081549 52 65 0.0 0.0 0.00 0.00 0.00 54 1005.2
20260505080033 52 65 0.0 0.0 0.00 0.00 0.00 54 1005.2
20260505074546 52 65 0.0 0.0 0.00 0.00 0.00 53 1005.0
20260505073043 53 64 0.0 0.0 0.00 0.00 0.00 53 1004.9
20260505071534 53 64 1.0 0.0 0.00 0.00 0.00 52 1004.8
20260505070118 53 65 0.0 0.0 0.00 0.00 0.00 51 1004.9
20260505064552 53 65 1.0 0.0 0.00 0.00 0.00 52 1005.1
20260505063044 53 65 0.0 0.0 0.00 0.00 0.00 52 1005.3
20260505061527 53 65 0.0 0.0 0.00 0.00 0.00 51 1005.2
20260505060056 53 65 0.0 0.0 0.00 0.00 0.00 49 1005.2
20260505054546 53 65 0.0 0.0 0.00 0.00 0.00 48 1005.2
20260505053032 53 65 0.0 0.0 0.00 0.00 0.00 47 1005.2
20260505051613 53 65 0.0 0.0 0.00 0.00 0.00 44 1005.2
20260505041542 53 64 0.0 0.0 0.00 0.00 0.00 38 1005.0
20260505040144 54 65 1.0 0.0 0.00 0.00 0.00 38 1004.8
20260505034534 54 64 1.0 0.0 0.00 0.00 0.00 35 1005.0
20260505033048 56 64 0.0 0.0 0.00 0.00 0.00 32 1004.9
20260505031555 56 64 1.0 0.0 0.00 0.00 0.00 31 1004.8
20260505030044 56 66 0.0 0.0 0.00 0.00 0.00 29 1004.9
20260505024534 57 66 1.0 0.0 0.00 0.00 0.00 28 1004.9
20260505023121 58 66 0.0 0.0 0.00 0.00 0.00 26 1004.6
20260505021559 60 66 1.0 0.0 0.00 0.00 0.00 24 1004.8
20260505020052 61 66 1.0 0.0 0.00 0.00 0.00 21 1004.9
20260505014548 62 175 0.0 0.0 0.00 0.00 0.00 20 1004.8
20260505013052 62 174 1.0 0.0 0.00 0.00 0.00 19 1004.8
20260505011544 63 167 2.0 0.0 0.00 0.00 0.00 18 1004.7
20260505010055 64 167 1.0 0.0 0.00 0.00 0.00 18 1004.7
20260505004546 65 157 2.0 0.0 0.00 0.00 0.00 16 1004.3
20260505003043 66 144 4.0 0.0 0.00 0.00 0.00 15 1004.2
20260505001547 66 130 4.0 0.0 0.00 0.00 0.00 15 1004.1
20260505000039 67 155 5.0 0.0 0.00 0.00 0.00 14 1004.1
20260504234551 69 154 4.0 0.0 0.00 0.00 0.00 13 1003.8
20260504233105 70 360 3.0 0.0 0.00 0.00 0.00 11 1003.6
20260504231541 71 203 4.0 0.0 0.00 0.00 0.00 11 1003.7
20260504230032 72 210 6.0 0.0 0.00 0.00 0.00 10 1003.8
20260504224544 72 193 6.0 0.0 0.00 0.00 0.00 10 1003.6
20260504223103 72 203 6.0 0.0 0.00 0.00 0.00 9 1003.6
20260504221533 72 232 5.0 0.0 0.00 0.00 0.00 9 1003.6
20260504220046 72 171 7.0 0.0 0.00 0.00 0.00 8 1003.6
20260504214616 73 185 5.0 0.0 0.00 0.00 0.00 9 1003.7
20260504213050 73 172 6.0 0.0 0.00 0.00 0.00 7 1003.8
20260504211544 73 205 5.0 0.0 0.00 0.00 0.00 9 1003.7
20260504210053 73 179 4.0 0.0 0.00 0.00 0.00 8 1003.8
20260504204553 73 193 6.0 0.0 0.00 0.00 0.00 9 1004.0
20260504203109 73 202 6.0 0.0 0.00 0.00 0.00 9 1004.1
20260504201537 73 248 6.0 0.0 0.00 0.00 0.00 9 1004.3
20260504200111 72 213 7.0 0.0 0.00 0.00 0.00 10 1004.5
20260504194548 72 219 7.0 0.0 0.00 0.00 0.00 10 1004.8